Location: Medlow Airstrip Trail, Medlow Bath NSW 2780, Australia
(33.6682°S, 150.3233°E)
Time: 09:03:23
(UTC+10:00)

Tiros 1 - All Passes

Search period start: 16 September 2019 00:00
Search period end: 26 September 2019 00:00
Orbit: 631 x 664 km, 48.4° (Epoch: 14 September)

Date Brightness Start Highest point End Pass type
(mag) Time Alt. Az. Time Alt. Az. Time Alt. Az.
16 Sep - 00:28:38 10° NNE 00:31:19 15° NE 00:34:00 10° E night (unlit)
16 Sep - 02:08:17 10° NW 02:13:00 81° SW 02:17:49 10° SE visible
16 Sep - 03:52:07 10° WSW 03:55:48 21° SSW 03:59:31 10° SSE visible
16 Sep - 05:37:02 10° SSW 05:39:29 14° S 05:41:57 10° SSE daylight
16 Sep - 07:19:21 10° SSW 07:23:09 22° SSE 07:26:57 10° ESE daylight
16 Sep - 09:01:02 10° SW 09:05:55 84° SE 09:10:46 10° NE daylight
16 Sep - 10:44:55 10° W 10:47:38 15° NW 10:50:20 10° NNW daylight
17 Sep - 00:52:42 10° NNW 00:57:02 38° NE 01:01:28 10° ESE night (unlit)
17 Sep - 02:34:49 10° W 02:39:14 38° SSW 02:43:44 10° SE visible
17 Sep - 04:19:39 10° SW 04:22:32 15° S 04:25:25 10° SSE visible
17 Sep - 06:03:28 10° SSW 06:06:21 15° S 06:09:13 10° SE daylight
17 Sep - 07:45:08 10° SW 07:49:39 37° SSE 07:54:09 10° E daylight
17 Sep - 09:27:21 10° WSW 09:31:54 41° NW 09:36:25 10° NNE daylight
17 Sep - 23:39:04 10° NNE 23:41:21 13° NE 23:43:39 10° E night (unlit)
18 Sep - 01:18:17 10° NW 01:22:59 87° SW 01:27:48 10° SE night (unlit)
18 Sep - 03:01:59 10° WSW 03:05:44 22° SSW 03:09:31 10° SSE visible
18 Sep - 04:46:57 10° SSW 04:49:23 14° S 04:51:49 10° SSE visible
18 Sep - 06:29:22 10° SSW 06:33:05 21° SSE 06:36:47 10° ESE daylight
18 Sep - 08:11:02 10° SW 08:15:54 77° SE 08:20:44 10° NE daylight
18 Sep - 09:54:38 10° W 09:57:39 17° NW 10:00:40 10° NNW daylight
19 Sep - 00:02:49 10° NNW 00:07:03 34° NE 00:11:22 10° ESE night (unlit)
19 Sep - 01:44:44 10° WNW 01:49:11 41° SSW 01:53:44 10° SE visible
19 Sep - 03:29:30 10° SW 03:32:26 16° SSW 03:35:23 10° SSE visible
19 Sep - 05:13:27 10° SSW 05:16:15 15° S 05:19:02 10° SE visible
19 Sep - 06:55:09 10° SW 06:59:36 35° SSE 07:04:02 10° E daylight
19 Sep - 08:37:16 10° WSW 08:41:54 45° NW 08:46:29 10° NNE daylight
19 Sep - 22:49:36 10° NNE 22:51:23 12° NE 22:53:11 10° ENE night (unlit)
20 Sep - 00:28:17 10° NW 00:32:59 86° NE 00:37:46 10° SE night (unlit)
20 Sep - 02:11:51 10° WSW 02:15:39 23° SSW 02:19:32 10° SSE visible
20 Sep - 03:56:52 10° SSW 03:59:17 14° S 04:01:43 10° SSE visible
20 Sep - 05:39:24 10° SSW 05:43:00 20° SSE 05:46:36 10° ESE daylight
20 Sep - 07:21:01 10° SW 07:25:52 71° SE 07:30:41 10° ENE daylight
20 Sep - 09:04:23 10° W 09:07:41 18° NW 09:10:57 10° N daylight
20 Sep - 23:12:58 10° NNW 23:17:05 31° NE 23:21:15 10° ESE night (unlit)
21 Sep - 00:54:40 10° WNW 00:59:10 44° SSW 01:03:44 10° SE night (unlit)
21 Sep - 02:39:21 10° SW 02:42:21 16° SSW 02:45:21 10° SSE visible
21 Sep - 04:23:27 10° SSW 04:26:09 15° S 04:28:51 10° SE visible
21 Sep - 06:05:10 10° SW 06:09:33 33° SSE 06:13:55 10° E daylight
21 Sep - 07:47:13 10° WSW 07:51:54 49° NW 07:56:33 10° NNE daylight
21 Sep - 22:00:26 10° NE 22:01:26 11° NE 22:02:26 10° ENE night (unlit)
21 Sep - 23:38:18 10° NW 23:42:59 79° NE 23:47:44 10° SE night (unlit)
22 Sep - 01:21:43 10° WSW 01:25:36 24° SSW 01:29:31 10° SSE visible
22 Sep - 03:06:46 10° SSW 03:09:11 14° S 03:11:37 10° SSE visible
22 Sep - 04:49:25 10° SSW 04:52:55 19° SSE 04:56:25 10° ESE visible
22 Sep - 06:31:01 10° SW 06:35:50 65° SE 06:40:38 10° ENE daylight
22 Sep - 08:14:11 10° W 08:17:42 20° NW 08:21:12 10° N daylight
22 Sep - 22:23:07 10° N 22:27:06 28° NE 22:31:08 10° ESE night (unlit)
23 Sep - 00:04:36 10° WNW 00:09:08 47° SSW 00:13:44 10° SE night (unlit)
23 Sep - 01:49:12 10° SW 01:52:16 17° SSW 01:55:20 10° SSE visible
23 Sep - 03:33:26 10° SSW 03:36:04 14° S 03:38:41 10° SE visible
23 Sep - 05:15:11 10° SW 05:19:29 31° SSE 05:23:47 10° E visible
23 Sep - 06:57:10 10° WSW 07:01:53 54° NW 07:06:35 10° NNE daylight
23 Sep - 22:48:20 10° NW 22:52:59 72° NE 22:57:42 10° SE night (unlit)
24 Sep - 00:31:36 10° W 00:35:32 26° SSW 00:39:32 10° SSE night (unlit)
24 Sep - 02:16:40 10° SW 02:19:05 14° S 02:21:31 10° SSE visible
24 Sep - 03:59:27 10° SSW 04:02:50 19° SSE 04:06:14 10° ESE visible
24 Sep - 05:41:02 10° SW 05:45:48 60° SE 05:50:35 10° ENE daylight
24 Sep - 07:24:00 10° W 07:27:43 22° NW 07:31:24 10° N daylight
24 Sep - 21:33:18 10° N 21:37:08 26° NE 21:41:00 10° ESE night (unlit)
24 Sep - 23:14:33 10° WNW 23:19:06 50° SSW 23:23:44 10° SE night (unlit)
25 Sep - 00:59:04 10° SW 01:02:11 17° SSW 01:05:19 10° SSE night (unlit)
25 Sep - 02:43:25 10° SSW 02:45:57 14° S 02:48:30 10° SE visible
25 Sep - 04:25:13 10° SW 04:29:26 29° SSE 04:33:38 10° E visible
25 Sep - 06:07:07 10° WSW 06:11:53 60° NW 06:16:37 10° NE daylight
25 Sep - 21:58:22 10° NW 22:02:59 65° NE 22:07:40 10° ESE night (unlit)
25 Sep - 23:41:29 10° W 23:45:29 27° SSW 23:49:32 10° SSE night (unlit)
